User: anonymous   Login
Location: Pitton
(51.0667°N, 1.7000°W)
Time: 20:09:44
(UTC+00:00)
Language:

MOS 1 Rocket - Orbit

View from above orbital plane
View from above orbital plane
View from above satellite
View from above satellite

Ground track
Ground track

The orbit data is extracted from the following two-line orbital elements,

1 17528U 87018B   19321.72192287 +.00000046 +00000-0 +19271-4 0  9995
2 17528 097.4388 190.6472 0153111 050.7056 310.7605 14.50947696707375
Epoch (UTC): 17 November 2019 17:19:34
Eccentricity: 0.0153111
inclination: 97.4388°
perigee height: 614 km
apogee height: 831 km
right ascension of ascending node: 190.6472°
argument of perigee: 50.7056°
revolutions per day: 14.50947696
mean anomaly at epoch: 310.7605°
orbit number at epoch: 70737

The dashed part of the orbit path shows where the satellite is in the earth's shadow,  

DLR